CW8504 Weather Reports


time (UTC)temp
C
wind
direction
speed
KPH
gust
KPH
rain 1hr
cm
rain 24hr
cm
rain mn
cm
humidity
%
barometer
mb
20260510203404 22 213 11.3 20.9 0.00 0.00 0.00 12 1021.6
20260510202904 22 213 1.6 19.3 0.00 0.00 0.00 10 1021.6
20260510202404 22 207 8.0 19.3 0.00 0.00 0.00 11 1021.7
20260510201904 21 162 1.6 4.8 0.00 0.00 0.00 12 1021.6
20260510201404 21 165 3.2 19.3 0.00 0.00 0.00 10 1021.7
20260510200904 21 222 9.7 14.5 0.00 0.00 0.00 12 1021.9
20260510195904 21 223 8.0 16.1 0.00 0.00 0.00 9 1021.9
20260510195404 21 220 1.6 11.3 0.00 0.00 0.00 11 1021.9
20260510194404 21 216 3.2 9.7 0.00 0.00 0.00 9 1022.0
20260510193904 21 220 9.7 19.3 0.00 0.00 0.00 12 1022.1
20260510193404 21 203 8.0 19.3 0.00 0.00 0.00 9 1022.0
20260510192904 21 214 9.7 19.3 0.00 0.00 0.00 9 1022.0
20260510192404 21 142 3.2 19.3 0.00 0.00 0.00 9 1022.0
20260510191404 20 218 0.0 4.8 0.00 0.00 0.00 10 1022.1
20260510190903 21 217 6.4 14.5 0.00 0.00 0.00 10 1022.3
20260510185904 21 165 3.2 11.3 0.00 0.00 0.00 12 1022.2
20260510185404 21 111 4.8 14.5 0.00 0.00 0.00 10 1022.3
20260510184903 21 251 6.4 16.1 0.00 0.00 0.00 10 1022.4
20260510184404 21 153 0.0 1.6 0.00 0.00 0.00 12 1022.4
20260510183904 20 152 1.6 4.8 0.00 0.00 0.00 12 1022.4
20260510183403 20 178 4.8 14.5 0.00 0.00 0.00 11 1022.4
20260510182904 20 225 3.2 14.5 0.00 0.00 0.00 13 1022.5
20260510182404 20 49 0.0 8.0 0.00 0.00 0.00 14 1022.5
20260510181904 19 49 0.0 4.8 0.00 0.00 0.00 17 1022.6
20260510180904 18 53 1.6 9.7 0.00 0.00 0.00 16 1022.8
20260510180403 18 57 0.0 1.6 0.00 0.00 0.00 16 1022.8
20260510175404 18 44 0.0 4.8 0.00 0.00 0.00 20 1023.0
20260510174404 17 44 1.6 4.8 0.00 0.00 0.00 21 1023.1
20260510173903 17 43 0.0 9.7 0.00 0.00 0.00 21 1023.2
20260510173406 17 44 0.0 4.8 0.00 0.00 0.00 20 1023.2
20260510171904 17 38 0.0 3.2 0.00 0.00 0.00 23 1023.4
20260510171403 16 38 0.0 3.2 0.00 0.00 0.00 22 1023.4
20260510170904 16 38 1.6 11.3 0.00 0.00 0.00 25 1023.4
20260510170404 15 36 1.6 4.8 0.00 0.00 0.00 23 1023.5
20260510165904 15 36 4.8 16.1 0.00 0.00 0.00 22 1023.4
20260510164904 15 36 3.2 9.7 0.00 0.00 0.00 23 1023.5
20260510164403 15 34 3.2 12.9 0.00 0.00 0.00 23 1023.5
20260510163904 15 34 1.6 14.5 0.00 0.00 0.00 24 1023.5
20260510163404 15 31 1.6 19.3 0.00 0.00 0.00 25 1023.5
20260510162904 14 14 6.4 14.5 0.00 0.00 0.00 26 1023.4
20260510162404 14 37 1.6 16.1 0.00 0.00 0.00 25 1023.4
20260510161907 14 15 6.4 16.1 0.00 0.00 0.00 25 1023.5
20260510160404 13 29 3.2 14.5 0.00 0.00 0.00 28 1023.7
20260510155404 12 64 0.0 9.7 0.00 0.00 0.00 35 1023.9
20260510154904 11 57 1.6 11.3 0.00 0.00 0.00 35 1023.9
20260510154405 11 282 0.0 9.7 0.00 0.00 0.00 37 1024.1
20260510153904 10 240 1.6 12.9 0.00 0.00 0.00 38 1024.1
20260510153404 10 304 0.0 4.8 0.00 0.00 0.00 40 1024.1
20260510152905 9 303 0.0 8.0 0.00 0.00 0.00 41 1024.2
20260510152404 8 308 0.0 8.0 0.00 0.00 0.00 44 1024.2
20260510151904 8 311 0.0 1.6 0.00 0.00 0.00 45 1024.2
20260510150904 7 307 1.6 3.2 0.00 0.00 0.00 48 1024.3
20260510150404 7 307 0.0 0.0 0.00 0.00 0.00 51 1024.4
20260510145904 6 307 0.0 0.0 0.00 0.00 0.00 52 1024.4
20260510145404 6 307 0.0 0.0 0.00 0.00 0.00 54 1024.5
20260510143404 3 306 0.0 3.2 0.00 0.00 0.00 60 1024.6
20260510142404 2 306 0.0 4.8 0.00 0.00 0.00 62 1024.7
20260510141903 2 306 0.0 4.8 0.00 0.00 0.00 63 1024.7
20260510140904 2 306 0.0 0.0 0.00 0.00 0.00 64 1024.8
20260510140404 1 306 0.0 0.0 0.00 0.00 0.00 66 1024.8
20260510135903 1 306 0.0 0.0 0.00 0.00 0.00 67 1024.8
20260510135404 1 306 0.0 0.0 0.00 0.00 0.00 68 1024.8
20260510134904 0 306 0.0 0.0 0.00 0.00 0.00 69 1024.8
20260510134404 0 306 0.0 0.0 0.00 0.00 0.00 70 1024.8
20260510133404 0 306 0.0 0.0 0.00 0.00 0.00 72 1024.8
20260510132404 0 306 0.0 0.0 0.00 0.00 0.00 73 1024.9
20260510131419 -1 306 0.0 0.0 0.00 0.00 0.00 73 1024.8
20260510130904 -1 306 0.0 0.0 0.00 0.00 0.00 73 1024.8
20260510130404 -1 306 0.0 0.0 0.00 0.00 0.00 72 1024.8
20260510125904 -2 306 0.0 0.0 0.00 0.00 0.00 72 1024.7
20260510125404 -2 306 0.0 0.0 0.00 0.00 0.00 72 1024.7
20260510124905 -2 306 0.0 0.0 0.00 0.00 0.00 72 1024.7
20260510124404 -2 306 0.0 0.0 0.00 0.00 0.00 72 1024.7
20260510123904 -2 306 0.0 0.0 0.00 0.00 0.00 72 1024.7
20260510123404 -2 306 0.0 0.0 0.00 0.00 0.00 72 1024.7
20260510122904 -2 306 0.0 0.0 0.00 0.00 0.00 72 1024.7
20260510121904 -2 306 0.0 0.0 0.00 0.00 0.00 72 1024.6
20260510121404 -2 306 0.0 0.0 0.00 0.00 0.00 72 1024.6
20260510120904 -2 306 0.0 0.0 0.00 0.00 0.00 71 1024.5
20260510120404 -2 306 0.0 0.0 0.00 0.00 0.00 71 1024.4
20260510115904 -2 306 0.0 0.0 0.00 0.00 0.00 71 1024.5
20260510115404 -2 306 0.0 0.0 0.00 0.00 0.00 71 1024.4
20260510114404 -2 306 0.0 0.0 0.00 0.00 0.00 71 1024.3
20260510113903 -2 306 0.0 0.0 0.00 0.00 0.00 71 1024.3
20260510113407 -2 306 0.0 0.0 0.00 0.00 0.00 71 1024.3
20260510112904 -2 306 0.0 0.0 0.00 0.00 0.00 71 1024.3
20260510112404 -1 306 0.0 0.0 0.00 0.00 0.00 71 1024.3
20260510111903 -1 306 0.0 0.0 0.00 0.00 0.00 71 1024.2
20260510111404 -1 306 0.0 0.0 0.00 0.00 0.00 71 1024.2
20260510110903 -1 306 0.0 0.0 0.00 0.00 0.00 71 1024.3
20260510110404 -1 306 0.0 0.0 0.00 0.00 0.00 71 1024.2
20260510105904 -1 306 0.0 0.0 0.00 0.00 0.00 71 1024.3
20260510105404 -1 306 0.0 0.0 0.00 0.00 0.00 71 1024.3
20260510104904 -1 306 0.0 0.0 0.00 0.00 0.00 70 1024.1
20260510104404 -1 306 0.0 0.0 0.00 0.00 0.00 70 1024.1
20260510103904 -1 306 0.0 0.0 0.00 0.00 0.00 70 1024.1
20260510103404 -1 306 0.0 0.0 0.00 0.00 0.00 70 1024.0
20260510102904 -1 306 0.0 0.0 0.00 0.00 0.00 70 1024.0
20260510102404 -1 306 0.0 0.0 0.00 0.00 0.00 70 1024.0
20260510101904 -1 306 0.0 0.0 0.00 0.00 0.00 69 1024.0
20260510101404 -1 306 0.0 0.0 0.00 0.00 0.00 69 1024.0
20260510100904 -1 306 0.0 0.0 0.00 0.00 0.00 69 1024.0
20260510100405 -1 306 0.0 0.0 0.00 0.00 0.00 69 1024.0
20260510095904 -1 306 0.0 0.0 0.00 0.00 0.00 69 1023.9
20260510095404 -1 306 0.0 0.0 0.00 0.00 0.00 69 1023.9
20260510094903 -1 306 0.0 0.0 0.00 0.00 0.00 68 1023.9
20260510094404 -1 306 0.0 0.0 0.00 0.00 0.00 68 1023.9
20260510093904 0 306 0.0 0.0 0.00 0.00 0.00 67 1023.9
20260510093404 0 306 0.0 0.0 0.00 0.00 0.00 67 1023.8
20260510092904 0 306 0.0 0.0 0.00 0.00 0.00 67 1023.7
20260510092404 0 306 0.0 0.0 0.00 0.00 0.00 67 1023.7
20260510090904 0 306 0.0 0.0 0.00 0.00 0.00 65 1023.5
20260510085904 0 306 0.0 0.0 0.00 0.00 0.00 65 1023.4
20260510085404 0 306 0.0 0.0 0.00 0.00 0.00 65 1023.4
20260510084404 0 306 0.0 0.0 0.00 0.00 0.00 65 1023.4
20260510083903 0 306 0.0 0.0 0.00 0.00 0.00 65 1023.3
20260510083404 0 306 0.0 0.0 0.00 0.00 0.00 63 1023.2
20260510082903 0 306 0.0 0.0 0.00 0.00 0.00 62 1023.2
20260510082404 0 306 0.0 0.0 0.00 0.00 0.00 62 1023.3
20260510081904 0 306 0.0 0.0 0.00 0.00 0.00 62 1023.2
20260510081404 0 306 0.0 0.0 0.00 0.00 0.00 63 1023.1
20260510080904 0 306 0.0 0.0 0.00 0.00 0.00 63 1023.1
20260510080403 0 306 0.0 0.0 0.00 0.00 0.00 63 1023.1
20260510075904 0 306 0.0 0.0 0.00 0.00 0.00 62 1023.1
20260510075403 0 306 0.0 0.0 0.00 0.00 0.00 62 1023.1
20260510074904 0 306 0.0 0.0 0.00 0.00 0.00 62 1023.1
20260510074404 0 306 0.0 0.0 0.00 0.00 0.00 62 1023.1
20260510073904 1 306 0.0 0.0 0.00 0.00 0.00 62 1023.0
20260510073406 1 306 0.0 0.0 0.00 0.00 0.00 62 1023.0
20260510072904 1 306 0.0 0.0 0.00 0.00 0.00 62 1023.0
20260510071904 1 306 0.0 0.0 0.00 0.00 0.00 63 1022.9
20260510071404 1 306 0.0 0.0 0.00 0.00 0.00 63 1022.9
20260510070904 1 306 0.0 0.0 0.00 0.00 0.00 62 1022.9
20260510070404 1 306 0.0 0.0 0.00 0.00 0.00 60 1022.9
20260510065904 1 306 0.0 0.0 0.00 0.00 0.00 60 1022.8
20260510065404 1 306 0.0 0.0 0.00 0.00 0.00 60 1022.8
20260510064904 1 306 0.0 0.0 0.00 0.00 0.00 60 1022.7
20260510064404 1 306 0.0 0.0 0.00 0.00 0.00 60 1022.7
20260510063404 1 306 0.0 0.0 0.00 0.00 0.00 59 1022.4
20260510062903 2 306 0.0 0.0 0.00 0.00 0.00 60 1022.3
20260510062404 2 306 0.0 0.0 0.00 0.00 0.00 59 1022.3
20260510061904 2 306 0.0 0.0 0.00 0.00 0.00 59 1022.3
20260510061404 2 306 0.0 0.0 0.00 0.00 0.00 59 1022.3
20260510060904 2 306 0.0 0.0 0.00 0.00 0.00 59 1022.2
20260510060403 2 306 0.0 0.0 0.00 0.00 0.00 59 1022.2
20260510055905 2 306 0.0 0.0 0.00 0.00 0.00 59 1022.1
20260510054404 3 306 0.0 0.0 0.00 0.00 0.00 56 1022.0
20260510053904 3 306 0.0 0.0 0.00 0.00 0.00 57 1022.0
20260510053404 3 306 0.0 0.0 0.00 0.00 0.00 57 1021.9
20260510052904 3 306 0.0 0.0 0.00 0.00 0.00 57 1022.0
20260510052404 3 306 0.0 0.0 0.00 0.00 0.00 57 1021.9
20260510051904 3 306 0.0 0.0 0.00 0.00 0.00 56 1021.9
20260510051405 3 306 0.0 0.0 0.00 0.00 0.00 55 1021.9
20260510050904 3 306 0.0 0.0 0.00 0.00 0.00 55 1021.9
20260510050404 4 306 0.0 0.0 0.00 0.00 0.00 54 1021.8
20260510045904 4 306 0.0 0.0 0.00 0.00 0.00 53 1021.7
20260510044904 4 306 0.0 0.0 0.00 0.00 0.00 53 1021.7
20260510044404 5 306 0.0 0.0 0.00 0.00 0.00 53 1021.7
20260510043904 5 306 0.0 0.0 0.00 0.00 0.00 52 1021.6
20260510042904 5 306 0.0 0.0 0.00 0.00 0.00 50 1021.5
20260510042404 5 306 0.0 0.0 0.00 0.00 0.00 49 1021.5
20260510041903 6 306 0.0 0.0 0.00 0.00 0.00 50 1021.5
20260510041404 6 306 0.0 0.0 0.00 0.00 0.00 49 1021.5
20260510040904 6 306 0.0 0.0 0.00 0.00 0.00 48 1021.4
20260510035904 6 306 0.0 0.0 0.00 0.00 0.00 46 1021.3
20260510035404 7 306 0.0 0.0 0.00 0.00 0.00 42 1021.2
20260510034904 7 306 0.0 0.0 0.00 0.00 0.00 43 1021.1
20260510033903 7 306 0.0 0.0 0.00 0.00 0.00 43 1021.0
20260510033404 8 306 0.0 0.0 0.00 0.00 0.00 40 1020.9
20260510032904 8 306 0.0 0.0 0.00 0.00 0.00 39 1020.8
20260510032403 8 306 0.0 0.0 0.00 0.00 0.00 39 1020.7
20260510031904 8 306 0.0 0.0 0.00 0.00 0.00 40 1020.6
20260510031403 9 306 0.0 0.0 0.00 0.00 0.00 39 1020.4
20260510030904 10 306 0.0 0.0 0.00 0.00 0.00 34 1020.3
20260510025904 10 306 0.0 0.0 0.00 0.00 0.00 34 1020.2
20260510025403 11 306 0.0 0.0 0.00 0.00 0.00 35 1020.1
20260510024904 11 306 0.0 0.0 0.00 0.00 0.00 35 1020.1
20260510024404 11 306 0.0 0.0 0.00 0.00 0.00 34 1020.0
20260510023904 12 306 0.0 0.0 0.00 0.00 0.00 26 1019.9
20260510023405 12 306 0.0 0.0 0.00 0.00 0.00 26 1019.8
20260510022903 13 306 0.0 0.0 0.00 0.00 0.00 26 1019.8
20260510022404 13 306 0.0 0.0 0.00 0.00 0.00 24 1019.8
20260510021905 13 306 0.0 0.0 0.00 0.00 0.00 25 1019.7
20260510021404 14 306 0.0 0.0 0.00 0.00 0.00 25 1019.7
20260510020905 14 306 0.0 0.0 0.00 0.00 0.00 24 1019.6
20260510020404 15 306 0.0 0.0 0.00 0.00 0.00 26 1019.6
20260510015904 15 306 0.0 0.0 0.00 0.00 0.00 22 1019.5
20260510015404 15 306 0.0 0.0 0.00 0.00 0.00 18 1019.5
20260510014404 16 307 0.0 0.0 0.00 0.00 0.00 18 1019.6
20260510013904 17 307 0.0 0.0 0.00 0.00 0.00 16 1019.6
20260510012903 17 307 0.0 0.0 0.00 0.00 0.00 13 1019.6
20260510012407 17 307 0.0 0.0 0.00 0.00 0.00 14 1019.5
20260510011904 17 307 0.0 0.0 0.00 0.00 0.00 13 1019.5
20260510011405 17 307 0.0 0.0 0.00 0.00 0.00 14 1019.6
20260510010904 17 307 0.0 8.0 0.00 0.00 0.00 14 1019.5
20260510010404 17 358 0.0 1.6 0.00 0.00 0.00 13 1019.6
20260510005904 17 0 0.0 1.6 0.00 0.00 0.00 15 1019.6
20260510005403 17 0 0.0 1.6 0.00 0.00 0.00 15 1019.5
20260510004904 17 0 0.0 4.8 0.00 0.00 0.00 12 1019.4
20260510004403 17 0 0.0 0.0 0.00 0.00 0.00 14 1019.4
20260510003404 17 5 0.0 3.2 0.00 0.00 0.00 16 1019.4
20260510002910 16 5 0.0 4.8 0.00 0.00 0.00 14 1019.2
20260510002404 16 3 1.6 11.3 0.00 0.00 0.00 13 1019.2
20260510001406 17 266 1.6 16.1 0.00 0.00 0.00 12 1019.2
20260510000404 17 233 4.8 16.1 0.00 0.00 0.00 13 1019.2
20260509235904 16 237 4.8 14.5 0.00 0.00 0.00 13 1019.2
20260509235404 16 238 0.0 4.8 0.00 0.00 0.00 14 1019.2
20260509234404 16 119 1.6 4.8 0.00 0.00 0.00 12 1019.2
20260509233904 16 126 0.0 0.0 0.00 0.00 0.00 15 1019.2
20260509233404 15 131 3.2 11.3 0.00 0.00 0.00 15 1019.1
20260509232903 15 32 1.6 8.0 0.00 0.00 0.00 14 1019.2
20260509232404 15 33 0.0 0.0 0.00 0.00 0.00 15 1019.2
20260509231904 15 43 0.0 0.0 0.00 0.00 0.00 15 1019.2
20260509230904 15 43 0.0 4.8 0.00 0.00 0.00 14 1019.1
20260509230404 16 44 3.2 8.0 0.00 0.00 0.00 13 1019.1
20260509225904 16 19 0.0 4.8 0.00 0.00 0.00 16 1019.2
20260509225404 16 33 0.0 4.8 0.00 0.00 0.00 13 1019.2
20260509224404 16 40 1.6 8.0 0.00 0.00 0.00 13 1019.0
20260509223907 16 271 0.0 11.3 0.00 0.00 0.00 14 1019.1
20260509223404 16 219 1.6 16.1 0.00 0.00 0.00 14 1019.1
20260509222904 17 242 8.0 14.5 0.00 0.00 0.00 14 1019.1
20260509222403 17 234 4.8 11.3 0.00 0.00 0.00 14 1019.1
20260509221910 17 354 0.0 19.3 0.00 0.00 0.00 13 1018.9
20260509221403 17 213 1.6 19.3 0.00 0.00 0.00 16 1018.9
20260509220904 17 220 4.8 16.1 0.00 0.00 0.00 14 1018.9
20260509220404 16 344 0.0 8.0 0.00 0.00 0.00 13 1019.0
20260509215904 16 32 1.6 14.5 0.00 0.00 0.00 14 1019.0
20260509214904 16 216 4.8 25.7 0.00 0.00 0.00 14 1019.0
20260509214404 16 242 1.6 4.8 0.00 0.00 0.00 14 1019.1
20260509213904 16 262 3.2 12.9 0.00 0.00 0.00 14 1019.1
20260509213404 16 205 9.7 19.3 0.00 0.00 0.00 15 1019.1
20260509212904 16 225 1.6 8.0 0.00 0.00 0.00 15 1019.1
20260509212404 16 217 4.8 14.5 0.00 0.00 0.00 15 1019.1
20260509210904 16 0 1.6 8.0 0.00 0.00 0.00 15 1019.0
20260509210404 15 234 0.0 0.0 0.00 0.00 0.00 16 1019.0
20260509205903 15 234 0.0 8.0 0.00 0.00 0.00 16 1019.0
20260509205404 15 236 0.0 0.0 0.00 0.00 0.00 16 1019.0
20260509204904 16 238 0.0 4.8 0.00 0.00 0.00 15 1019.0
20260509204404 16 6 1.6 4.8 0.00 0.00 0.00 14 1019.1
20260509203904 16 231 3.2 9.7 0.00 0.00 0.00 16 1019.0